| time (UTC) | temp F | wind direction | speed MPH | gust MPH | rain 1hr in | rain 24hr in | rain mn in | humidity % | barometer mb |
| 20260507040019 | 56 | 302 | 3.0 | 8.0 | 0.02 | 0.21 | 0.21 | 88 | 1007.4 |
| 20260507034537 | 57 | 315 | 3.0 | 9.0 | 0.00 | 0.19 | 0.19 | 86 | 1007.2 |
| 20260507033055 | 57 | 323 | 2.0 | 16.0 | 0.00 | 0.19 | 0.19 | 86 | 1006.7 |
| 20260507031525 | 59 | 332 | 4.0 | 10.0 | 0.00 | 0.19 | 0.19 | 92 | 1006.3 |
| 20260507030039 | 59 | 334 | 3.0 | 9.0 | 0.00 | 0.19 | 0.19 | 93 | 1006.0 |
| 20260507024507 | 59 | 236 | 0.0 | 7.0 | 0.00 | 0.19 | 0.19 | 93 | 1006.2 |
| 20260507023027 | 59 | 237 | 2.0 | 6.0 | 0.00 | 0.19 | 0.19 | 93 | 1006.2 |
| 20260507021552 | 59 | 192 | 0.0 | 4.0 | 0.00 | 0.19 | 0.19 | 93 | 1006.0 |
| 20260507020027 | 59 | 192 | 0.0 | 4.0 | 0.00 | 0.19 | 0.19 | 92 | 1005.8 |
| 20260507014554 | 59 | 195 | 1.0 | 4.0 | 0.00 | 0.19 | 0.19 | 92 | 1005.9 |
| 20260507013021 | 59 | 171 | 0.0 | 6.0 | 0.00 | 0.19 | 0.19 | 92 | 1006.0 |
| 20260507011531 | 59 | 175 | 0.0 | 6.0 | 0.00 | 0.19 | 0.19 | 92 | 1006.0 |
| 20260507010053 | 59 | 205 | 1.0 | 6.0 | 0.00 | 0.19 | 0.19 | 92 | 1006.1 |
| 20260507004529 | 59 | 184 | 2.0 | 6.0 | 0.00 | 0.19 | 0.19 | 92 | 1005.9 |
| 20260507003037 | 59 | 165 | 2.0 | 10.0 | 0.00 | 0.19 | 0.19 | 92 | 1005.8 |
| 20260507001602 | 59 | 180 | 4.0 | 7.0 | 0.00 | 0.19 | 0.19 | 92 | 1005.7 |
| 20260507000028 | 59 | 171 | 5.0 | 10.0 | 0.02 | 0.19 | 0.19 | 92 | 1005.8 |
| 20260506234555 | 59 | 177 | 5.0 | 12.0 | 0.04 | 0.19 | 0.19 | 92 | 1005.6 |
| 20260506233019 | 59 | 196 | 3.0 | 10.0 | 0.06 | 0.19 | 0.19 | 92 | 1005.6 |
| 20260506231549 | 59 | 182 | 2.0 | 9.0 | 0.08 | 0.19 | 0.19 | 92 | 1005.6 |
| 20260506230004 | 59 | 161 | 2.0 | 6.0 | 0.09 | 0.17 | 0.17 | 92 | 1005.7 |
| 20260506224528 | 59 | 204 | 1.0 | 8.0 | 0.08 | 0.15 | 0.15 | 92 | 1005.8 |
| 20260506223054 | 59 | 232 | 2.0 | 8.0 | 0.06 | 0.13 | 0.13 | 91 | 1005.7 |
| 20260506221516 | 60 | 175 | 4.0 | 10.0 | 0.04 | 0.11 | 0.11 | 90 | 1005.9 |
| 20260506220031 | 60 | 180 | 5.0 | 13.0 | 0.02 | 0.08 | 0.08 | 90 | 1005.9 |
| 20260506214558 | 60 | 182 | 1.0 | 14.0 | 0.01 | 0.07 | 0.07 | 89 | 1006.1 |
| 20260506213018 | 60 | 173 | 5.0 | 14.0 | 0.02 | 0.07 | 0.07 | 89 | 1006.0 |
| 20260506211601 | 60 | 168 | 5.0 | 12.0 | 0.03 | 0.07 | 0.07 | 89 | 1006.3 |
| 20260506210103 | 60 | 168 | 8.0 | 11.0 | 0.03 | 0.06 | 0.06 | 89 | 1006.5 |
| 20260506204529 | 61 | 178 | 4.0 | 11.0 | 0.03 | 0.06 | 0.06 | 89 | 1006.6 |
| 20260506203052 | 62 | 169 | 3.0 | 10.0 | 0.02 | 0.05 | 0.05 | 88 | 1006.7 |
| 20260506201530 | 62 | 205 | 2.0 | 10.0 | 0.02 | 0.04 | 0.04 | 87 | 1006.6 |
| 20260506200040 | 63 | 158 | 3.0 | 10.0 | 0.02 | 0.03 | 0.03 | 84 | 1006.6 |
| 20260506194506 | 63 | 200 | 3.0 | 9.0 | 0.02 | 0.03 | 0.03 | 84 | 1006.7 |
| 20260506193036 | 64 | 178 | 3.0 | 7.0 | 0.03 | 0.03 | 0.03 | 83 | 1006.7 |
| 20260506191554 | 64 | 196 | 3.0 | 7.0 | 0.02 | 0.02 | 0.02 | 79 | 1006.6 |
| 20260506190020 | 66 | 191 | 2.0 | 13.0 | 0.01 | 0.01 | 0.01 | 75 | 1006.6 |
| 20260506184540 | 67 | 165 | 6.0 | 14.0 | 0.01 | 0.01 | 0.01 | 70 | 1006.8 |
| 20260506183002 | 68 | 243 | 6.0 | 15.0 | 0.00 | 0.00 | 0.00 | 66 | 1006.9 |
| 20260506181523 | 70 | 159 | 7.0 | 20.0 | 0.00 | 0.00 | 0.00 | 62 | 1007.0 |
| 20260506180050 | 70 | 160 | 6.0 | 18.0 | 0.00 | 0.00 | 0.00 | 60 | 1007.0 |
| 20260506174511 | 72 | 257 | 11.0 | 24.0 | 0.00 | 0.00 | 0.00 | 55 | 1007.0 |
| 20260506173034 | 72 | 184 | 10.0 | 20.0 | 0.00 | 0.00 | 0.00 | 53 | 1006.8 |
| 20260506171552 | 73 | 185 | 4.0 | 16.0 | 0.00 | 0.00 | 0.00 | 54 | 1007.0 |
| 20260506170011 | 72 | 155 | 10.0 | 20.0 | 0.00 | 0.00 | 0.00 | 55 | 1007.1 |
| 20260506164530 | 72 | 119 | 5.0 | 12.0 | 0.00 | 0.00 | 0.00 | 57 | 1007.3 |
| 20260506163104 | 71 | 200 | 10.0 | 15.0 | 0.00 | 0.00 | 0.00 | 58 | 1007.6 |
| 20260506161517 | 71 | 165 | 8.0 | 15.0 | 0.00 | 0.00 | 0.00 | 57 | 1007.8 |
| 20260506160041 | 71 | 192 | 6.0 | 16.0 | 0.00 | 0.00 | 0.00 | 59 | 1008.1 |
| 20260506154506 | 70 | 157 | 4.0 | 11.0 | 0.00 | 0.00 | 0.00 | 61 | 1008.4 |
| 20260506153023 | 69 | 172 | 7.0 | 11.0 | 0.00 | 0.00 | 0.00 | 62 | 1008.7 |
| 20260506151558 | 69 | 182 | 6.0 | 15.0 | 0.00 | 0.00 | 0.00 | 62 | 1008.8 |
| 20260506150017 | 70 | 218 | 8.0 | 19.0 | 0.00 | 0.00 | 0.00 | 61 | 1008.9 |
| 20260506144559 | 69 | 217 | 6.0 | 12.0 | 0.00 | 0.00 | 0.00 | 62 | 1009.1 |
| 20260506143015 | 69 | 208 | 5.0 | 14.0 | 0.00 | 0.00 | 0.00 | 63 | 1009.0 |
| 20260506141534 | 69 | 176 | 4.0 | 17.0 | 0.00 | 0.00 | 0.00 | 64 | 1008.9 |
| 20260506140053 | 69 | 151 | 10.0 | 16.0 | 0.00 | 0.00 | 0.00 | 66 | 1008.8 |
| 20260506134517 | 68 | 144 | 7.0 | 22.0 | 0.00 | 0.00 | 0.00 | 67 | 1008.8 |
| 20260506133037 | 67 | 199 | 4.0 | 15.0 | 0.00 | 0.00 | 0.00 | 70 | 1009.2 |
| 20260506131503 | 66 | 189 | 4.0 | 9.0 | 0.00 | 0.00 | 0.00 | 71 | 1009.4 |
| 20260506130017 | 65 | 213 | 5.0 | 14.0 | 0.00 | 0.00 | 0.00 | 72 | 1009.6 |
| 20260506124535 | 64 | 182 | 5.0 | 12.0 | 0.00 | 0.00 | 0.00 | 72 | 1009.7 |
| 20260506123003 | 64 | 155 | 6.0 | 15.0 | 0.00 | 0.00 | 0.00 | 73 | 1009.4 |
| 20260506121527 | 64 | 209 | 3.0 | 14.0 | 0.00 | 0.00 | 0.00 | 73 | 1009.8 |
| 20260506120051 | 64 | 206 | 9.0 | 13.0 | 0.00 | 0.00 | 0.00 | 73 | 1009.6 |
| 20260506114511 | 62 | 198 | 5.0 | 12.0 | 0.00 | 0.00 | 0.00 | 75 | 1009.8 |
| 20260506113035 | 62 | 173 | 7.0 | 13.0 | 0.00 | 0.00 | 0.00 | 75 | 1009.8 |
| 20260506111555 | 62 | 204 | 3.0 | 12.0 | 0.00 | 0.00 | 0.00 | 76 | 1010.0 |
| 20260506110019 | 61 | 184 | 1.0 | 8.0 | 0.00 | 0.00 | 0.00 | 76 | 1009.8 |
| 20260506104540 | 60 | 169 | 4.0 | 10.0 | 0.00 | 0.00 | 0.00 | 77 | 1009.9 |
| 20260506103011 | 60 | 213 | 3.0 | 11.0 | 0.00 | 0.00 | 0.00 | 77 | 1009.8 |
| 20260506101523 | 60 | 178 | 3.0 | 8.0 | 0.00 | 0.00 | 0.00 | 77 | 1009.8 |
| 20260506100050 | 60 | 160 | 3.0 | 8.0 | 0.00 | 0.00 | 0.00 | 77 | 1009.8 |
| 20260506094509 | 60 | 173 | 6.0 | 11.0 | 0.00 | 0.00 | 0.00 | 76 | 1009.9 |
| 20260506093024 | 60 | 186 | 4.0 | 7.0 | 0.00 | 0.00 | 0.00 | 75 | 1009.5 |
| 20260506091549 | 60 | 195 | 4.0 | 11.0 | 0.00 | 0.00 | 0.00 | 75 | 1009.7 |
| 20260506090018 | 61 | 165 | 3.0 | 11.0 | 0.00 | 0.00 | 0.00 | 74 | 1009.7 |
| 20260506084541 | 61 | 153 | 4.0 | 10.0 | 0.00 | 0.00 | 0.00 | 73 | 1009.7 |
| 20260506083053 | 62 | 207 | 4.0 | 12.0 | 0.00 | 0.00 | 0.00 | 72 | 1009.8 |
| 20260506081518 | 62 | 171 | 4.0 | 11.0 | 0.00 | 0.00 | 0.00 | 71 | 1009.8 |
| 20260506073016 | 63 | 144 | 3.0 | 9.0 | 0.00 | 0.00 | 0.00 | 69 | 1009.7 |
| 20260506071539 | 63 | 175 | 2.0 | 9.0 | 0.00 | 0.00 | 0.00 | 68 | 1009.6 |
| 20260506061508 | 64 | 165 | 5.0 | 9.0 | 0.00 | 0.00 | 0.00 | 64 | 1009.2 |
| 20260506044530 | 64 | 192 | 6.0 | 13.0 | 0.00 | 0.00 | 0.00 | 62 | 1009.7 |
| 20260506043052 | 64 | 180 | 6.0 | 11.0 | 0.00 | 0.00 | 0.00 | 62 | 1009.6 |
| 20260506041512 | 64 | 144 | 6.0 | 10.0 | 0.00 | 0.00 | 0.00 | 62 | 1009.6 |